Погода в Аникщяе

Литва     55°31′42″N   25°05′48″E
темп.,
°C
ветер,
м/с
пор.,
м/с
влажн.,
%
обл.,
%
осадки,
мм/ч
давл.,
гПа
погр.,
м
8 мая, сб
сб800:00+2сз33905 0.0 100650
03:000зсз389526 0.0 1007186
06:00−1зюз369791 0.0 1010164
09:00+4зсз477525 0.0 1011899
12:00+8сз6951100 0.1 10122029
15:00+9зсз6950100 0.1 10122077
18:00+8зсз686532 0.8 10131390
21:00+4сз22835 1.2 101524
9 мая, вс
вс900:00+2зюз22875 0.0 101715
03:00+1з34890 0.0 101950
06:000юз2294100 0.0 102037
09:00+6юз35776 0.0 1021419
12:00+10юз56585 0.0 10211276
15:00+12юз5745100 0.0 10211729
18:00+13ююз485680 0.0 10201858
21:00+10ю4868100 0.0 1020183
10 мая, пн
пн1000:00+10ю6146590 0.0 1020497
03:00+9ю61469100 0.0 1021416
06:00+8ю5137714 0.0 1021305
09:00+12ю6117270 0.0 1022413
12:00+17ю71061100 0.0 1022878
15:00+19ю810555 0.0 10221245
18:00+19ююв7106335 0.0 10211158
21:00+14ююв6147330 0.0 1022487
11 мая, вт
вт1100:00+12ююв61575100 0.0 1022443
03:00+11ююв6157471 0.0 1022420
06:00+10ююв6167685 0.0 1022418
09:00+13ююв715705 0.0 1022625
12:00+17ююв8125544 0.0 10211009
15:00+19ююв812515 0.0 10211243
18:00+18ююв812565 0.0 10201015
21:00+14юв615655 0.0 1020556
12 мая, ср
ср1200:00+12юв514734 0.0 1020424
03:00+10юв412755 0.0 1020289
06:00+8юв412835 0.0 1020259
09:00+14юв610725 0.0 1019451
12:00+19юв710600 0.0 10181240
15:00+21вюв710563 0.0 10171818
18:00+20вюв7116410 0.0 10161479
21:00+15вюв5117941 0.1 1016478